#timestamp,LO_Frequency,Hit,StdDev 
1507932015.8,286047002.5,N
1507932035.7,286047003.8,N
1507932055.5,286047003.5,N
1507932075.4,286047004.2,N
1507932095.2,286047003.7,N
1507932115.0,286047006.0,Y
1507932115.9,286047006.0,P
1507932135.8,286047004.4,N
1507932155.6,286047003.1,N
1507932175.5,286047002.8,N
1507932195.3,286047000.0,N
1507932215.1,286047001.1,N
1507932235.9,286047000.5,N
1507932255.7,286046998.7,N
1507932275.5,286046999.3,N
1507932295.4,286046998.5,N
1507932315.2,286046998.2,N
1507932335.1,286046998.5,N
1507932336.0,286046998.5,N
1507932355.8,286046999.3,N
1507932375.6,286046996.7,N
1507932395.5,286046999.5,N
1507932415.3,286047001.0,N
1507932435.1,286047000.5,N
1507932455.9,286047000.0,N
1507932475.7,286047000.2,N
1507932495.6,286047000.5,N
1507932515.4,286046998.1,N
1507932535.2,286047000.5,N
1507932555.1,286047000.7,N
1507932556.0,286047000.7,N
1507932575.8,286047000.4,N
1507932595.6,286046998.4,N
1507932615.5,286047000.5,N
1507932635.3,286047000.6,N
1507932655.2,286047000.3,N
1507932675.9,286047002.5,N
1507932695.7,286047000.5,N
1507932715.6,286047000.1,N
1507932735.4,286047002.7,N
1507932755.2,286047001.0,N
1507932775.1,286046999.6,N
1507932776.0,286046999.6,N
1507932795.8,286046996.8,N
1507932815.7,286046999.6,N
1507932835.5,286046996.6,N
1507932855.3,286047000.5,N
1507932875.2,286047002.5,N
1507932895.0,286047002.5,N
1507932895.9,286047002.5,N
1507932915.8,286047002.0,N
1507932935.6,286047004.2,N
1507932955.4,286047001.8,N
1507932975.3,286047002.1,N
1507932995.1,286046999.7,N
1507933015.8,286047000.1,N
1507933035.7,286047002.8,N
1507933055.5,286047000.4,N
1507933075.4,286046999.9,N
1507933095.2,286047000.7,N
1507933115.0,286046998.6,N
1507933115.9,286046998.6,N
1507933135.8,286047001.0,N
1507933155.6,286047001.0,N
1507933175.4,286046998.9,N
1507933195.3,286046999.2,N
1507933215.1,286046998.2,N
1507933235.9,286046998.7,N
1507933255.7,286047000.8,N
1507933275.5,286046998.9,N
1507933295.4,286047001.1,N
1507933315.2,286046998.1,N
1507933335.0,286046998.5,N
1507933335.9,286046998.5,N
1507933355.8,286046998.7,N
1507933375.6,286046999.2,N
1507933395.5,286046998.4,N
1507933415.3,286047001.0,N
1507933435.1,286046998.1,N
1507933455.9,286046998.4,N
1507933475.7,286047000.0,N
1507933495.5,286047002.6,N
1507933515.4,286047001.3,N
1507933535.2,286047004.2,Y
1507933555.1,286047003.4,P
1507933556.0,286047003.4,N
1507933575.8,286047004.4,N
1507933595.6,286047001.9,N
1507933615.5,286046999.9,N
1507933635.3,286047002.6,N
1507933655.2,286047000.6,N
1507933675.9,286047000.2,N
1507933695.7,286047000.8,N
1507933715.6,286047000.0,N
1507933735.4,286047002.6,N
1507933755.2,286047000.0,N
1507933775.1,286047002.3,N
1507933776.0,286047002.3,N
1507933795.8,286047002.4,N
1507933815.7,286047002.5,N
1507933835.5,286047002.5,N
1507933855.3,286047002.0,N
1507933875.2,286047001.3,N
1507933895.0,286047002.6,N
1507933895.9,286047002.6,N
1507933915.8,286047001.7,N
1507933935.6,286047001.4,N
1507933955.4,286047002.0,N
1507933975.3,286047002.2,N
1507933995.1,286047001.8,N
1507934015.8,286047001.9,N
1507934035.7,286047001.4,N
1507934055.5,286047003.6,Y
1507934075.4,286047003.8,P
1507934095.2,286047002.3,N
1507934115.0,286047000.7,N
1507934115.9,286047000.7,N
1507934135.8,286047000.2,N
1507934155.6,286046998.2,N
1507934175.5,286046998.5,N
1507934195.3,286047000.8,N
1507934215.1,286046998.7,N
1507934235.9,286046998.1,N
1507934255.7,286046999.8,N
1507934275.5,286047000.4,N
1507934295.4,286047001.0,N
1507934315.2,286046996.5,N
1507934335.1,286046999.6,N
1507934336.0,286046999.6,N
1507934355.8,286046995.4,N
1507934375.6,286046997.4,N
1507934395.5,286046999.3,N
1507934415.3,286046999.1,N
1507934435.1,286046998.8,N
1507934455.9,286046998.8,N
1507934475.7,286046998.7,N
1507934495.6,286046996.7,N
1507934515.4,286046999.6,N
1507934535.2,286046999.0,N
1507934555.1,286047001.2,N
1507934556.0,286047001.2,N
1507934575.8,286046999.6,N
1507934595.6,286046999.5,N
1507934615.5,286046999.6,N
1507934635.3,286046997.1,N
1507934655.2,286046997.3,N
1507934675.9,286046997.3,N
1507934695.7,286046995.5,Y
1507934715.6,286046999.2,P
1507934735.4,286046999.6,N
1507934755.2,286046997.0,P
1507934775.1,286046999.6,N
1507934776.0,286046999.6,N
1507934795.8,286046999.1,N
1507934815.7,286046997.2,Y
1507934835.5,286046996.6,P
1507934855.3,286046998.3,N
1507934875.2,286046998.8,N
1507934895.0,286046998.6,N
1507934895.9,286046998.6,N
1507934915.8,286047001.1,N
1507934935.6,286047001.2,N
1507934955.4,286047000.7,N
1507934975.3,286046998.1,N
1507934995.1,286046999.4,N
1507935015.8,286046999.1,N
1507935035.7,286046997.5,N
1507935055.5,286046997.6,N
1507935075.4,286046995.1,Y
1507935095.2,286046997.1,P
1507935115.0,286046997.4,N
1507935115.9,286046997.4,P
1507935135.8,286046998.9,N
1507935155.6,286046999.0,N
1507935175.4,286047000.8,N
1507935195.3,286046998.9,N
1507935215.1,286046998.3,N
1507935235.9,286046998.6,N
1507935255.7,286046999.0,N
1507935275.5,286047000.9,N
1507935295.4,286047000.9,N
1507935315.2,286046998.2,N
1507935335.1,286046998.3,N
1507935336.0,286046998.3,N
1507935355.8,286047001.2,N
1507935375.6,286046999.2,N
1507935395.5,286046998.9,N
1507935415.3,286047001.1,N
1507935435.1,286046999.3,N
1507935455.9,286046997.0,N
1507935475.7,286046999.2,N
1507935495.6,286046996.6,N
1507935515.4,286046996.5,N
1507935535.2,286046999.5,N
1507935555.1,286046998.6,N
1507935556.0,286046998.6,N
1507935575.8,286046995.0,Y
1507935595.7,286046999.2,P
